Starlink 36216

operational
NORAD ID: 67217 Int'l Des: 2025-304 Owner: SPXS Country: US Constellation: starlink
LEOCIRCULAR

About Starlink 36216

Description loading...

Live Position

Loading 3D Globe...

Upcoming Passes

Altitude History

Altitude vs Time

uPlot chart will show altitude changes over time

Two-Line Element Set

1 67217C 25304AB 25352.76437500 .00727960 00000+0 99137-3 0 3521
2 67217 69.9977 31.2805 0009364 252.0619 220.3389 16.05224996 10
Epoch: Dec 18, 2025 • Age: 39 hours

Current Status

Altitude 261.1 km
Velocity 7.75 km/s
Sub-Earth Point 1.63°N, 78.65°E
Launch Date Dec 17, 2025
Age 1 days
Type internet

Technical Details

Classification Payload
Mass 575.00 kg
Dry Mass 530.00 kg
Total Mass 575.00 kg
Length 0.30 m
Diameter 4.10 m
Span 29.00 m
Shape Box + pan
Manufacturer SPXS
Bus Type Starlink V2MO
Phase Status In Orbit
Owner/State SPXS/US

Large Constellations

Loading constellations...